Voltar ao catálogo

CZ-4B DEB

AtivoPO
NORAD 57397·DEBRIS·🇨🇳 China

Lançado Oct 24, 2018 de Taiyuan Satellite Launch Center

Loading…

Próximas Passagens (próximas 24 horas)

TLE

EnvelhecendoSource: Space-Track

Época: Sep 10, 2026, 13:50 UTC

1 57397U 18081Q   26253.57660802  .00001346  00000-0  35744-3 0  9991
2 57397  99.3701 189.1211 0193962 349.6703  10.0522 14.40082691179289

Acompanhe CZ-4B DEB em tempo real com AllMySat

Download on the App Store